Location: Asheville, NC
(35.6000°N, 82.5500°W)
Time: 00:22:15
(UTC-04:00)

Vanguard 1 - Pass Details

Date: 17 March 2018
Orbit: 650 x 3833 km, 34.3° (Epoch: 22 June)

Event Time Altitude Azimuth Distance (km) Brightness Sun altitude
Rises 11:33:45 0° 265° (W) 7,456 14.3 43.1°
Reaches altitude 10° 11:38:24 10° 265° (W) 6,657 14.1 43.8°
Maximum altitude 12:02:13 87° 181° (S) 3,695 13.9 46.9°
Drops below altitude 10° 12:21:18 10° 95° (E) 5,541 14.4 49.0°
Sets 12:24:45 0° 95° (E) 6,221 14.5 49.4°
